• In Deutschland
  • Länderverzeichnis
  • Für 7 Tage
  • Wassertemperatur
  • Satellitenkarten
  • Wetterkarte
  • Widgets
  • user-avatar
    Anmelden

    Stündliche Wetter Markkleeberg

    Heute, 17 Oktober, Dienstag

    Zeit Temperatur Niederschläge Wind Luftdruck Luftfeuchtigkeit
    00:00 +16°C° 0 mm 3 m/S 757 mmHg 77%
    01:00 +16°C° 0 mm 3 m/S 757 mmHg 75%
    02:00 +16°C° 0 mm 3 m/S 756 mmHg 75%
    03:00 +16°C° 0 mm 3 m/S 756 mmHg 75%
    04:00 +16°C° 0 mm 3 m/S 756 mmHg 75%
    05:00 +14°C° 0 mm 3 m/S 756 mmHg 75%
    06:00 +14°C° 0 mm 3 m/S 756 mmHg 75%
    07:00 +13°C° 0 mm 3 m/S 756 mmHg 76%
    08:00 +16°C° 0 mm 3 m/S 756 mmHg 70%
    09:00 +18°C° 0 mm 3 m/S 756 mmHg 64%
    10:00 +20°C° 0 mm 3 m/S 756 mmHg 58%
    11:00 +21°C° 0 mm 3 m/S 756 mmHg 55%
    12:00 +22°C° 0 mm 3 m/S 756 mmHg 52%
    13:00 +25°C° 0 mm 2 m/S 755 mmHg 48%
    14:00 +24°C° 0 mm 2 m/S 755 mmHg 52%
    15:00 +24°C° 0 mm 1 m/S 754 mmHg 55%
    16:00 +23°C° 0 mm 1 m/S 754 mmHg 59%
    17:00 +21°C° 0 mm 1 m/S 754 mmHg 63%
    18:00 +20°C° 0 mm 1 m/S 754 mmHg 68%
    19:00 +18°C° 0 mm 1 m/S 754 mmHg 73%
    20:00 +16°C° 0 mm 1 m/S 754 mmHg 75%
    21:00 +16°C° 0 mm 1 m/S 754 mmHg 77%
    22:00 +15°C° 0 mm 2 m/S 753 mmHg 79%
    23:00 +15°C° 0 mm 1 m/S 753 mmHg 81%

    Morgen, 18 Oktober, Mittwoch

    Zeit Temperatur Niederschläge Wind Luftdruck Luftfeuchtigkeit
    00:00 +14°C° 0 mm 1 m/S 753 mmHg 82%
    01:00 +14°C° 0 mm 1 m/S 753 mmHg 84%
    02:00 +14°C° 0 mm 1 m/S 753 mmHg 84%
    03:00 +13°C° 0 mm 1 m/S 752 mmHg 85%
    04:00 +13°C° 0 mm 1 m/S 752 mmHg 86%
    05:00 +13°C° 0 mm 1 m/S 752 mmHg 86%
    06:00 +12°C° 0 mm 1 m/S 752 mmHg 87%
    07:00 +12°C° 0 mm 2 m/S 752 mmHg 87%
    08:00 +14°C° 0 mm 1 m/S 751 mmHg 80%
    09:00 +16°C° 0 mm 1 m/S 751 mmHg 73%
    10:00 +19°C° 0 mm 1 m/S 751 mmHg 66%
    11:00 +20°C° 0 mm 1 m/S 751 mmHg 62%
    12:00 +21°C° 0 mm 1 m/S 751 mmHg 58%
    13:00 +22°C° 0 mm 1 m/S 751 mmHg 54%
    14:00 +22°C° 0 mm 1 m/S 750 mmHg 56%
    15:00 +21°C° 0 mm 1 m/S 750 mmHg 59%
    16:00 +19°C° 0 mm 0 m/S 750 mmHg 61%
    17:00 +19°C° 0 mm 1 m/S 750 mmHg 66%
    18:00 +18°C° 0 mm 1 m/S 750 mmHg 70%
    19:00 +15°C° 0 mm 1 m/S 750 mmHg 75%
    20:00 +15°C° 0 mm 1 m/S 750 mmHg 77%
    21:00 +14°C° 0 mm 1 m/S 750 mmHg 78%
    22:00 +14°C° 0 mm 2 m/S 750 mmHg 80%
    23:00 +13°C° 0 mm 2 m/S 750 mmHg 81%

    übermorgen, 19 Oktober, Donnerstag

    Zeit Temperatur Niederschläge Wind Luftdruck Luftfeuchtigkeit
    00:00 +13°C° 0 mm 2 m/S 750 mmHg 82%
    01:00 +13°C° 0 mm 2 m/S 750 mmHg 82%
    02:00 +12°C° 0 mm 2 m/S 750 mmHg 82%
    03:00 +12°C° 0 mm 2 m/S 750 mmHg 82%
    04:00 +12°C° 0 mm 2 m/S 750 mmHg 82%
    05:00 +10°C° 0 mm 2 m/S 750 mmHg 82%
    06:00 +10°C° 0 mm 2 m/S 750 mmHg 81%
    07:00 +10°C° 0 mm 2 m/S 750 mmHg 81%
    08:00 +13°C° 0 mm 2 m/S 750 mmHg 74%
    09:00 +15°C° 0 mm 2 m/S 750 mmHg 68%
    10:00 +17°C° 0 mm 2 m/S 751 mmHg 62%
    11:00 +19°C° 0 mm 1 m/S 750 mmHg 58%
    12:00 +21°C° 0 mm 1 m/S 750 mmHg 54%
    13:00 +22°C° 0 mm 1 m/S 750 mmHg 50%
    14:00 +22°C° 0 mm 1 m/S 750 mmHg 53%
    15:00 +21°C° 0 mm 1 m/S 750 mmHg 56%
    16:00 +21°C° 0 mm 1 m/S 750 mmHg 58%
    17:00 +19°C° 0 mm 1 m/S 750 mmHg 62%
    18:00 +17°C° 0 mm 2 m/S 750 mmHg 65%
    19:00 +16°C° 0 mm 2 m/S 750 mmHg 69%
    20:00 +15°C° 0 mm 2 m/S 750 mmHg 70%
    21:00 +15°C° 0 mm 2 m/S 750 mmHg 71%
    22:00 +14°C° 0 mm 2 m/S 751 mmHg 72%
    23:00 +14°C° 0 mm 2 m/S 751 mmHg 71%

    20 Oktober, Freitag

    Zeit Temperatur Niederschläge Wind Luftdruck Luftfeuchtigkeit
    00:00 +14°C° 0 mm 2 m/S 751 mmHg 71%
    01:00 +14°C° 0 mm 2 m/S 751 mmHg 71%
    02:00 +13°C° 0 mm 2 m/S 751 mmHg 71%
    03:00 +13°C° 0 mm 2 m/S 750 mmHg 70%
    04:00 +13°C° 0 mm 1 m/S 750 mmHg 70%
    05:00 +13°C° 0 mm 1 m/S 751 mmHg 71%
    06:00 +12°C° 0 mm 1 m/S 751 mmHg 71%
    07:00 +12°C° 0 mm 1 m/S 751 mmHg 71%
    08:00 +14°C° 0 mm 1 m/S 751 mmHg 67%
    09:00 +16°C° 0 mm 2 m/S 751 mmHg 62%
    10:00 +18°C° 0 mm 2 m/S 751 mmHg 58%
    11:00 +19°C° 0 mm 2 m/S 751 mmHg 55%
    12:00 +20°C° 0 mm 2 m/S 751 mmHg 52%
    13:00 +21°C° 0 mm 2 m/S 751 mmHg 49%
    14:00 +20°C° 0 mm 2 m/S 751 mmHg 53%
    15:00 +20°C° 0 mm 2 m/S 751 mmHg 56%
    16:00 +20°C° 0 mm 1 m/S 751 mmHg 60%
    17:00 +18°C° 0 mm 2 m/S 751 mmHg 63%
    18:00 +17°C° 0 mm 2 m/S 751 mmHg 65%
    19:00 +16°C° 0 mm 2 m/S 751 mmHg 68%
    20:00 +16°C° 0 mm 2 m/S 751 mmHg 70%
    21:00 +15°C° 0 mm 2 m/S 751 mmHg 72%
    22:00 +14°C° 0 mm 3 m/S 752 mmHg 74%
    23:00 +13°C° 0 mm 3 m/S 751 mmHg 76%

    21 Oktober, Samstag

    Zeit Temperatur Niederschläge Wind Luftdruck Luftfeuchtigkeit
    00:00 +13°C° 0 mm 3 m/S 751 mmHg 77%
    01:00 +12°C° 0 mm 3 m/S 751 mmHg 79%
    02:00 +13°C° 0 mm 2 m/S 751 mmHg 79%
    03:00 +13°C° 0 mm 2 m/S 751 mmHg 79%
    04:00 +13°C° 0 mm 2 m/S 751 mmHg 79%
    05:00 +13°C° 0 mm 2 m/S 751 mmHg 78%
    06:00 +14°C° 0 mm 2 m/S 751 mmHg 77%
    07:00 +14°C° 0 mm 2 m/S 751 mmHg 76%
    08:00 +14°C° 0 mm 3 m/S 751 mmHg 73%
    09:00 +17°C° 0 mm 3 m/S 751 mmHg 69%
    10:00 +18°C° 0 mm 3 m/S 751 mmHg 66%
    11:00 +19°C° 0 mm 3 m/S 751 mmHg 62%
    12:00 +21°C° 0 mm 4 m/S 751 mmHg 58%
    13:00 +22°C° 0 mm 4 m/S 750 mmHg 54%
    14:00 +21°C° 0 mm 3 m/S 750 mmHg 58%
    15:00 +20°C° 0 mm 3 m/S 750 mmHg 61%
    16:00 +20°C° 0 mm 2 m/S 750 mmHg 65%
    17:00 +19°C° 0,1 mm 3 m/S 750 mmHg 69%
    18:00 +18°C° 0,1 mm 3 m/S 750 mmHg 73%
    19:00 +17°C° 0,1 mm 3 m/S 750 mmHg 77%
    20:00 +16°C° 0,4 mm 3 m/S 751 mmHg 81%
    21:00 +16°C° 0,4 mm 3 m/S 751 mmHg 84%
    22:00 +16°C° 0,4 mm 3 m/S 751 mmHg 87%
    23:00 +16°C° 0,2 mm 3 m/S 751 mmHg 87%

    22 Oktober, Sonntag

    Zeit Temperatur Niederschläge Wind Luftdruck Luftfeuchtigkeit
    00:00 +14°C° 0,2 mm 3 m/S 751 mmHg 87%
    01:00 +14°C° 0,2 mm 4 m/S 752 mmHg 87%
    02:00 +13°C° 0,1 mm 3 m/S 751 mmHg 87%
    03:00 +13°C° 0,1 mm 3 m/S 751 mmHg 88%
    04:00 +13°C° 0,1 mm 3 m/S 751 mmHg 88%
    05:00 +13°C° 0,2 mm 3 m/S 751 mmHg 87%
    06:00 +12°C° 0,2 mm 3 m/S 751 mmHg 87%
    07:00 +12°C° 0,2 mm 3 m/S 751 mmHg 87%
    08:00 +12°C° 0,1 mm 4 m/S 752 mmHg 83%
    09:00 +13°C° 0,1 mm 5 m/S 752 mmHg 80%
    10:00 +13°C° 0,1 mm 5 m/S 752 mmHg 77%
    11:00 +13°C° 0,1 mm 5 m/S 752 mmHg 75%
    12:00 +13°C° 0,1 mm 5 m/S 752 mmHg 72%
    13:00 +13°C° 0,1 mm 5 m/S 752 mmHg 70%
    14:00 +12°C° 0 mm 5 m/S 752 mmHg 70%
    15:00 +12°C° 0 mm 4 m/S 752 mmHg 71%
    16:00 +12°C° 0 mm 4 m/S 752 mmHg 71%
    17:00 +11°C° 0 mm 4 m/S 753 mmHg 72%
    18:00 +10°C° 0 mm 4 m/S 753 mmHg 74%
    19:00 +10°C° 0 mm 4 m/S 753 mmHg 76%
    20:00 +8°C° 0 mm 4 m/S 754 mmHg 77%
    21:00 +8°C° 0 mm 4 m/S 754 mmHg 79%
    22:00 +7°C° 0 mm 4 m/S 754 mmHg 81%
    23:00 +7°C° 0 mm 5 m/S 755 mmHg 82%
    Mehr zeigen